1394668826301,2.64506
1394668886301,2.70957
1394668946300,2.66351
1394669006300,2.67889
1394669066301,2.67025
1394669126301,2.69517
1394669186301,2.70589
1394669246301,2.69905
1394669306301,2.68218
1394669366301,2.66861
1394669426301,2.69129
1394669486301,2.70286
1394669546301,2.66652
1394669606300,2.69423
1394669666300,2.71161
1394669726300,2.70909
1394669786300,2.71043
1394669846300,2.68355
1394669906300,2.70714
1394669966300,2.70078
1394670026301,2.70560
1394670086301,2.72362
1394670146301,2.69966
1394670206301,2.71832
1394670266300,2.70581
1394670326300,2.72244
1394670386301,2.70786
1394670446301,2.72654
1394670506301,2.72683
1394670566301,2.72405
1394670626301,2.71441
1394670686301,2.73059
1394670746301,2.81292
1394670806301,2.74514
1394670866301,2.71839
1394670926300,2.75626
1394670986300,2.75287
1394671046300,2.76952
1394671106300,2.75267
1394671166300,2.76217
1394671226300,2.74833
1394671286300,2.75341
1394671346300,2.75737
1394671406301,2.74579
1394671466301,2.73715
1394671526301,2.76955
1394671586301,2.71379
1394671646300,2.74483
1394671706300,2.72001
1394671766301,2.72230
1394671826301,2.74050
1394671886301,2.72398
1394671946301,2.73986
1394672006301,2.74555
1394672066301,2.74352
1394672126301,2.72208
1394672186301,2.72576
1394672246301,2.74177
1394672306300,2.73850
1394672366300,2.73019
1394672426312,2.71980
1394672486312,2.73226
1394672546312,2.75554
1394672606312,2.73615
1394672666312,2.74022
1394672726312,2.72141
1394672786312,2.75214
1394672846312,2.75778
1394672906312,2.73974
1394672966312,2.75243
1394673026312,2.70877
1394673086312,2.70334
1394673146312,2.71953
1394673206312,2.72035
1394673266312,2.72743
1394673326312,2.72332
1394673386312,2.69821
1394673446312,2.72700
1394673506312,2.68537
1394673566312,2.71110
1394673626312,2.66734
1394673686312,2.70169
1394673746312,2.67436
1394673806312,2.67095
1394673866312,2.65149
1394673926312,2.68415
1394673986312,2.67875
1394674046312,2.68639
1394674106312,2.68734
1394674166312,2.64210
1394674226312,2.65961
1394674286312,2.66899
1394674346312,2.67592
1394674406312,2.65419
1394674466312,2.66452
1394674526312,2.65660
1394674586312,2.63615
1394674646312,2.68264
1394674706312,2.66312
1394674766312,2.65554
1394674826312,2.65420
1394674886312,2.61848
1394674946312,2.65495
1394675006312,2.66159
1394675066312,2.64784
1394675126312,2.64195
1394675186312,2.62716
1394675246312,2.64870
1394675306312,2.61802
1394675366312,2.63913
1394675426312,2.67007
1394675486312,2.67411
1394675546312,2.64411
1394675606312,2.64850
1394675666312,2.62779
1394675726312,2.66586
1394675786312,2.61184
1394675846312,2.63490
1394675906312,2.64699
1394675966312,2.66316
1394676026324,2.65306
1394676086324,2.65124
1394676146324,2.65510
1394676206324,2.64131
1394676266324,2.63847
1394676326324,2.65775
1394676386324,2.62067
1394676446324,2.64007
1394676506324,2.66166
1394676566324,2.63248
1394676626324,2.66036
1394676686324,2.63309
1394676746324,2.61158
1394676806324,2.61614
1394676866324,2.61123
1394676926324,2.62342
1394676986324,2.62818
1394677046324,2.63919
1394677106324,2.63139
1394677166324,2.61935
1394677226324,2.60788
1394677286324,2.60830
1394677346324,2.61354
1394677406324,2.60468
1394677466324,2.61229
1394677526324,2.62900
1394677586324,2.62764
1394677646324,2.59805
1394677706324,2.60341
1394677766324,2.61184
1394677826324,2.61096
1394677886324,2.57738
1394677946324,2.59011
1394678006324,2.62048
1394678066324,2.60633
1394678126324,2.59737
1394678186324,2.59098
1394678246324,2.62625
1394678306324,2.58551
1394678366324,2.59358
1394678426324,2.60238
1394678486324,2.58281
1394678546324,2.59312
1394678606324,2.56138
1394678666324,2.58648
1394678726324,2.56721
1394678786324,2.60493
1394678846324,2.59069
1394678906324,2.59213
1394678966324,2.61202
1394679026324,2.56183
1394679086324,2.60571
1394679146324,2.57636
1394679206324,2.56218
1394679266324,2.59628
1394679326324,2.58587
1394679386324,2.56963
1394679446324,2.59872
1394679506324,2.58211
1394679566324,2.54711
1394679626335,2.55466
1394679686335,2.56540
1394679746335,2.58077
1394679806335,2.56400
1394679866335,2.55190
1394679926335,2.59176
1394679986335,2.57105
1394680046335,2.56966
1394680106335,2.57948
1394680166335,2.58283
1394680226335,2.53794
1394680286335,2.56725
1394680346335,2.56652
1394680406335,2.53600
1394680466335,2.53724
1394680526335,2.53954
1394680586335,2.51946
1394680646335,2.57221
1394680706335,2.56693
1394680766335,2.54690
1394680826335,2.56318
1394680886335,2.54067
1394680946335,2.55024
1394681006335,2.54259
1394681066335,2.52914
1394681126335,2.56725
1394681186335,2.55841
1394681246335,2.55700
1394681306335,2.55058
1394681366335,2.57895
1394681426335,2.54167
1394681486335,2.56521
1394681546335,2.57377
1394681606335,2.53480
1394681666335,2.54543
1394681726335,2.53700
1394681786335,2.55117
1394681846335,2.56882
1394681906335,2.56264
1394681966335,2.56485
1394682026335,2.53861
1394682086335,2.57178
1394682146335,2.55325
1394682206335,2.54062
1394682266335,2.54375
1394682326335,2.51808
1394682386335,2.54705
1394682446335,2.56318
1394682506335,2.56058
1394682566335,2.55166
1394682626335,2.58600
1394682686335,2.51202
1394682746335,2.53041
1394682806335,2.55819
1394682866335,2.54303
1394682926335,2.55276
1394682986335,2.54892
1394683046335,2.55455
1394683106335,2.53596
1394683166335,2.50300
1394683226347,2.54143
1394683286347,2.53668
1394683346347,2.52141
1394683406347,2.52407
1394683466347,2.52764
1394683526347,2.53794
1394683586347,2.51978
1394683646347,2.54086
1394683706347,2.52448
1394683766347,2.53961
1394683826347,2.53724
1394683886347,2.53679
1394683946347,2.51354
1394684006347,2.55024
1394684066347,2.53208
1394684126347,2.56072
1394684186347,2.54994
1394684246347,2.51194
1394684306347,2.54232
1394684366347,2.51762
1394684426347,2.52815
1394684486347,2.55616
1394684546347,2.53580
1394684606347,2.52449
1394684666347,2.50429
1394684726347,2.51653
1394684786347,2.54103
1394684846347,2.49482
1394684906347,2.50036
1394684966347,2.50940
1394685026347,2.55645
1394685086347,2.52856
1394685146347,2.50338
1394685206347,2.51857
1394685266347,2.48048
1394685326347,2.51427
1394685386347,2.51303
1394685446347,2.51281
1394685506347,2.49703
1394685566347,2.52667
1394685626347,2.50860
1394685686347,2.51584
1394685746347,2.53523
1394685806347,2.54803
1394685866347,2.59211
1394685926347,2.52047
1394685986347,2.53684
1394686046347,2.51297
1394686106347,2.50480
1394686166347,2.50877
1394686226347,2.53363
1394686286347,2.54106
1394686346347,2.53582
1394686406347,2.52931
1394686466347,2.55219
1394686526347,2.51163
1394686586347,2.52766
1394686646347,2.54328
1394686706347,2.53548
1394686766347,2.54983
1394686826358,2.53568
1394686886358,2.53670
1394686946358,2.52432
1394687006358,2.52656
1394687066358,2.54324
1394687126358,2.52273
1394687186358,2.52234
1394687246358,2.53291
1394687306358,2.54055
1394687366358,2.55744
1394687426358,2.50491
1394687486358,2.53942
1394687546358,2.56701
1394687606358,2.51415
1394687666358,2.53473
1394687726358,2.51049
1394687786358,2.50921
1394687846358,2.50405
1394687906358,2.54362
1394687966358,2.51617
1394688026358,2.55010
1394688086358,2.55104
1394688146358,2.55965
1394688206358,2.53101
1394688266358,2.49571
1394688326358,2.52931
1394688386358,2.53058
1394688446358,2.54287
1394688506358,2.53943
1394688566358,2.52745
1394688626358,2.56775
1394688686358,2.52794
1394688746358,2.51672
1394688806358,2.53188
1394688866358,2.53457
1394688926358,2.49647
1394688986358,2.54906
1394689046358,2.53099
1394689106358,2.55432
1394689166358,2.53084
1394689226358,2.56508
1394689286358,2.52163
1394689346358,2.50804
1394689406358,2.53567
1394689466358,2.55089
1394689526358,2.53393
1394689586358,2.52051
1394689646358,2.51216
1394689706358,2.52518
1394689766358,2.52967
1394689826358,2.62571
1394689886358,2.61308
1394689946358,2.53169
1394690006358,2.54989
1394690066358,2.53379
1394690126358,2.53451
1394690186358,2.52370
1394690246358,2.53711
1394690306358,2.48880
1394690366358,2.50514
1394690426370,2.50685
1394690486370,2.51557
1394690546370,2.51507
1394690606370,2.51707
1394690666370,2.53216
1394690726370,2.56392
1394690786370,2.52333
1394690846370,2.55184
1394690906370,2.54913
1394690966370,2.48336
1394691026370,2.50477
1394691086370,2.54082
1394691146370,2.51331
1394691206370,2.48713
1394691266370,2.51309
1394691326370,2.52506
1394691386370,2.53364
1394691446370,2.50600
1394691506370,2.52537
1394691566370,2.53281
1394691626370,2.51240
1394691686370,2.47339
1394691746370,2.42091
1394704886413,2.51427
1394704946413,2.53395
1394705006413,2.54880
1394705066413,2.54883
1394705126413,2.52768
1394705186413,2.53313
1394705246413,2.53199
1394705306413,2.52023
1394705366413,2.51343
1394705426413,2.51473
1394705486413,2.50998
1394705546413,2.51642
1394705606413,2.50392
1394705666413,2.50401
1394705726413,2.50073
1394705786413,2.48590
1394705846413,2.52578
1394705906413,2.54070
1394705966413,2.54418
1394706026413,2.51475
1394706086413,2.52893
1394706146413,2.51375
1394706206413,2.52230
1394706266413,2.50692
1394706326413,2.52708
1394706386413,2.50306
1394706446413,2.52986
1394706506413,2.54739
1394706566413,2.53188
1394706626413,2.52286
1394706686413,2.50640
1394706746413,2.53277
1394706806413,2.51493
1394706866413,2.50478
1394706926413,2.48721
1394706986413,2.49157
1394707046413,2.51407
1394707106413,2.50496
1394707166413,2.50670
1394707226413,2.51062
1394707286413,2.52322
1394707346413,2.47383
1394707406413,2.48456
1394707466413,2.50148
1394707526413,2.50056
1394707586413,2.48830
1394707646413,2.51826
1394707706413,2.50839
1394707766413,2.50523
1394707826413,2.51900
1394707886413,2.50436
1394707946413,2.51024
1394708006413,2.48240
1394708066413,2.48976
1394708126413,2.49634
1394708186413,2.49894
1394708246413,2.49697
1394708306413,2.48771
1394708366413,2.49092
1394708426424,2.51400
1394708486424,2.49045
1394708546424,2.49217
1394708606424,2.50666
1394708666424,2.50459
1394708726424,2.49134
1394708786424,2.49728
1394708846424,2.48141
1394708906424,2.50317
1394708966424,2.50298
1394709026424,2.50380
1394709086424,2.51020
1394709146424,2.50819
1394709206424,2.51294
1394709266424,2.50067
1394709326424,2.51520
1394709386424,2.49479
1394709446424,2.50204
1394709506424,2.53055
1394709566424,2.47293
1394709626424,2.50244
1394709686424,2.52145
1394709746424,2.50348
1394709806424,2.50375
1394709866424,2.50341
1394709926424,2.48051
1394709986424,2.51420
1394710046424,2.51398
1394710106424,2.52097
1394710166424,2.50060
1394710226424,2.49670
1394710286424,2.49492
1394710346424,2.43994
1394710406424,2.51124
1394710466424,2.52401
1394710526424,2.53128
1394710586424,2.48906
1394710646424,2.52212
1394710706424,2.53494
1394710766424,2.49883
1394710826424,2.52836
1394710886424,2.51248
1394710946424,2.49474
1394711006424,2.53625
1394711066424,2.53262
1394711126424,2.53660
1394711186424,2.52103
1394711246424,2.50070
1394711306424,2.49721
1394711366424,2.51206
1394711426424,2.49749
1394711486424,2.51448
1394711546424,2.52231
1394711606424,2.54150
1394711666424,2.48066
1394711726424,2.47788
1394711786424,2.50777
1394711846424,2.52289
1394711906424,2.51921
1394711966424,3.10888
1394712026436,2.51846
1394712086436,2.49925
1394712146436,2.53807
1394712206436,2.52613
1394712266436,2.50700
1394712326436,2.50497
1394712386436,2.52616
1394712446436,2.52685
1394712506436,2.50118
1394712566436,2.51347
1394712626436,2.50735
1394712686436,2.52931
1394712746436,2.56741
1394712806436,2.52471
1394712866436,2.51910
1394712926436,2.49623
1394712986436,2.52141
1394713046436,2.51337
1394713106436,2.53100
1394713166436,2.51613
1394713226436,2.50512
1394713286436,2.52815
1394713346436,2.51204
1394713406436,2.50804
1394713466436,2.50654
1394713526436,2.52169
1394713586436,2.53562
1394713646436,2.51380
1394713706436,2.52756
1394713766436,2.49771
1394713826436,2.51520
1394713886436,2.49161
1394713946436,2.51172
1394714006436,2.50852
1394714066436,2.51124
1394714126436,2.49354
1394714186436,2.49524
1394714246436,2.49892
1394714306436,2.51916
1394714366436,2.50412
1394714426436,2.49139
1394714486436,2.49795
1394714546436,2.52268
1394714606436,2.50429
1394714666436,2.51400
1394714726436,2.51416
1394714786436,2.49266
1394714846436,2.51264
1394714906436,2.48021
1394714966436,2.49588
1394715026436,2.52790
1394715086436,2.48422
1394715146436,2.50943
1394715206436,2.50803
1394715266436,2.49747
1394715326436,2.50354
1394715386436,2.53256
1394715446436,2.52266
1394715506436,2.49220
1394715566436,2.51468
1394715626447,2.52220
1394715686447,2.50507
1394715746447,2.49773
1394715806447,2.47808
1394715866447,2.49652
1394715926447,2.50558
1394715986447,2.48579
1394716046447,2.50013
1394716106447,2.47587
1394716166447,2.49834
1394716226447,2.48626
1394716286447,2.48120
1394716346447,2.50843
1394716406447,2.50162
1394716466447,2.49005
1394716526447,2.52774
1394716586447,2.46689
1394716646447,2.50814
1394716706447,2.48565
1394716766447,2.50712
1394716826447,2.48810
1394716886447,2.50886
1394716946447,2.50640
1394717006447,2.50821
1394717066447,2.50961
1394717126447,2.54030
1394717186447,2.51086
1394717246447,2.51458
1394717306447,2.50090
1394717366447,2.52036
1394717426447,2.51945
1394717486447,2.49762
1394717546447,2.51202
1394717606447,2.50359
1394717666447,2.52156
1394717726447,2.51550
1394717786447,2.48878
1394717846447,2.51864
1394717906447,2.50608
1394717966447,2.52373
1394718026447,2.48342
1394718086447,2.54445
1394718146447,2.59362
1394718206447,2.51391
1394718266447,2.50591
1394718326447,2.51743
1394718386447,2.50330
1394718446447,2.48874
1394718506447,2.51104
1394718566447,2.52040
1394718626447,2.58266
1394718686447,2.51751
1394718746447,2.51516
1394718806447,2.51940
1394718866447,2.50752
1394718926447,2.52555
1394718986447,2.52930
1394719046447,2.52669
1394719106447,2.54566
1394719166447,2.51134
1394719226459,2.51267
1394719286459,2.53216
1394719346459,2.49680
1394719406459,2.52981
1394719466459,2.54569
1394719526459,2.53711
1394719586459,2.53784
1394719646459,2.53424
1394719706459,2.53318
1394719766459,2.56996
1394719826459,2.52351
1394719886459,2.53532
1394719946459,2.51350
1394720006459,2.52715
1394720066459,2.54906
1394720126459,2.53907
1394720186459,2.52005
1394720246459,2.54186
1394720306459,2.51057
1394720366459,2.52951
1394720426459,2.53849
1394720486459,2.50994
1394720546459,2.49686
1394720606459,2.51070
1394720666459,2.53803
1394720726459,2.50975
1394720786459,2.50621
1394720846459,2.51851
1394720906459,2.50158
1394720966459,2.54679
1394721026459,2.51323
1394721086459,2.50814
1394721146459,2.50736
1394721206459,2.55269
1394721266459,2.51150
1394721326459,2.51915
1394721386459,2.51233
1394721446459,2.53448
1394721506459,2.54085
1394721566459,2.50288
1394721626459,2.52313
1394721686459,2.55090
1394721746459,2.52909
1394721806459,2.51582
1394721866459,2.54768
1394721926459,2.49458
1394721986459,2.51070
1394722046459,2.53407
1394722106459,2.49344
1394722166459,2.50071
1394722226459,2.50373
1394722286459,2.50563
1394722346459,2.50457
1394722406459,2.48694
1394722466459,2.50596
1394722526459,2.50375
1394722586459,2.52576
1394722646459,2.52012
1394722706459,2.52744
1394722766459,2.51185
1394722826470,2.51753
1394722886470,2.49449
1394722946470,2.49651
1394723006470,2.48201
1394723066470,2.49138
1394723126470,2.49786
1394723186470,2.49225
1394723246470,2.49276
1394723306470,2.49115
1394723366470,2.51819
1394723426470,2.49898
1394723486470,2.51105
1394723546470,2.51559
1394723606470,2.49577
1394723666470,2.47341
1394723726470,2.51247
1394723786470,2.49979
1394723846470,2.49291
1394723906470,2.47004
1394723966470,2.51337
1394724026470,2.47363
1394724086470,2.49981
1394724146470,2.51339
1394724206470,2.49922
1394724266470,2.52101
1394724326470,2.51386
1394724386470,2.48424
1394724446470,2.52941
1394724506470,2.47788
1394724566470,2.49404
1394724626470,2.48199
1394724686470,2.47416
1394724746470,2.50181
1394724806470,2.50701
1394724866470,2.50161
1394724926470,2.49499
1394724986470,2.46799
1394725046470,2.49060
1394725106470,2.48390
1394725166470,2.49298
1394725226470,2.48789
1394725286470,2.48611
1394725346470,2.50401
1394725406470,2.48840
1394725466470,2.48638
1394725526470,2.49910
1394725586470,2.49718
1394725646470,2.49245
1394725706470,2.49534
1394725766470,2.53638
1394725826470,2.49568
1394725886470,2.49104
1394725946470,2.51502
1394726006470,2.49675
1394726066470,2.49042
1394726126470,2.50744
1394726186470,2.51529
1394726246470,2.47173
1394726306470,2.50415
1394726366470,2.53156
1394726426481,2.52695
1394726486481,2.49978
1394726546481,2.50499
1394726606481,2.48379
1394726666481,2.49035
1394726726481,2.48732
1394726786481,2.53114
1394726846481,2.52974
1394726906481,2.49949
1394726966481,2.49460
1394727026481,2.50575
1394727086481,2.53816
1394727146481,2.50485
1394727206481,2.49615
1394727266481,2.51050
1394727326481,2.52669
1394727386481,2.50615
1394727446481,2.48574
1394727506481,2.51045
1394727566481,2.54792
1394727626481,2.50261
1394727686481,2.51848
1394727746481,2.52707
1394727806481,2.49506
1394727866481,2.50562
1394727926481,2.50139
1394727986481,2.51906
1394728046481,2.48611
1394728106481,2.52968
1394728166481,2.52164
1394728226481,2.49430
1394728286481,2.50057
1394728346481,2.49998
1394728406481,2.53762
1394728466481,2.48669
1394728526481,2.52907
1394728586481,2.49770
1394728646481,2.50816
1394728706481,2.50285
1394728766481,2.49502
1394728826481,2.50811
1394728886481,2.48769
1394728946481,2.49815
1394729006481,2.53159
1394729066481,2.48360
1394729126481,2.50639
1394729186481,2.49788
1394729246481,2.51413
1394729306481,2.50943
1394729366481,2.49529
1394729426481,2.47533
1394729486481,2.48104
1394729546481,2.50347
1394729606481,2.50217
1394729666481,2.47881
1394729726481,2.46854
1394729786481,2.48881
1394729846481,2.51348
1394729906481,2.47397
1394729966481,2.47888
1394730026492,2.50112
1394730086492,2.47427
1394730146492,2.52632
1394730206492,2.51443
1394730266492,2.48681
1394730326492,2.49798
1394730386492,2.47264
1394730446492,2.48948
1394730506492,2.49813
1394730566492,2.47459
1394730626492,2.48883
1394730686492,2.49289
1394730746492,2.52537
1394730806492,2.47755
1394730866492,2.47073
1394730926492,2.47423
1394730986492,2.46505
1394731046492,2.48655
1394731106492,2.49430
1394731166492,2.51732
1394731226492,2.48623
1394731286492,2.48112
1394731346492,2.49646
1394731406492,2.49971
1394731466492,2.50659
1394731526492,2.47525
1394731586492,2.51004
1394731646492,2.52742
1394731706492,2.52059
1394731766492,2.51636
1394731826492,2.53310
1394731886492,2.50926
1394731946492,2.50117
1394732006492,2.46758
1394732066492,2.50840
1394732126492,2.48830
1394732186492,2.49966
1394732246492,2.50126
1394732306492,2.51617
1394732366492,2.51627
1394732426492,2.52492
1394732486492,2.51602
1394732546492,2.54100
1394732606492,2.51254
1394732666492,2.48899
1394732726492,2.49124
1394732786492,2.49700
1394732846492,2.49233
1394732906492,2.51789
1394732966492,2.46488
1394733026492,2.49609
1394733086492,2.50383
1394733146492,2.56516
1394733206492,2.53265
1394733266492,2.48332
1394733326492,2.51810
1394733386492,2.50128
1394733446492,2.47538
1394733506492,2.50124
1394733566492,2.66178
1394733626503,2.48771
1394733686503,2.48700
1394733746503,2.50331
1394733806503,2.51068
1394733866503,2.52742
1394733926503,2.50214
1394733986503,2.49474
1394734046503,2.46758
1394734106503,2.49331
1394734166503,2.50948
1394734226503,2.49130
1394734286503,2.51610
1394734346503,2.54303
1394734406503,2.60774
1394734466503,2.49351
1394734526503,2.50918
1394734586503,2.51231
1394734646503,2.49137
1394734706503,2.48076
1394734766503,2.49702
1394734826503,2.49755
1394734886503,2.49355
1394734946503,2.50744
1394735006503,2.51084
1394735066503,2.53581
1394735126503,2.52196
1394735186503,2.47460
1394735246503,2.50269
1394735306503,2.49995
1394735366503,2.46747
1394735426503,2.48868
1394735486503,2.49415
1394735546503,2.50322
1394735606503,2.48986
1394735666503,2.51528
1394735726503,2.47683
1394735786503,2.47549
1394735846503,2.48981
1394735906503,2.50078
1394735966503,2.49840
1394736026503,2.50655
1394736086503,2.52400
1394736146503,2.48587
1394736206503,2.49432
1394736266503,2.48213
1394736326503,2.49591
1394736386503,2.51101
1394736446503,2.48012
1394736506503,2.49399
1394736566503,2.45156
1394736626503,2.49209
1394736686503,2.43510
1394736746503,2.46601
1394736806503,2.45827
1394736866503,2.49523
1394736926503,2.46928
1394736986503,2.44594
1394737046503,2.48898
1394737106503,2.47289
1394737166503,2.49511
1394737226514,2.47032
1394737286514,2.45976
1394737346514,2.48621
1394737406514,2.48565
1394737466514,2.47836
1394737526514,2.45442
1394737586514,2.50493
1394737646514,2.49808
1394737706514,2.47655
1394737766514,2.45541
1394737826514,2.48106
1394737886514,2.46823
1394737946514,2.49892
1394738006514,2.54737
1394738066514,2.52190
1394738126514,2.52965
1394738186514,2.50675
1394738246514,2.50797
1394738306514,2.55368
1394738366514,2.54034
1394738426514,2.55800
1394738486514,2.56910
1394738546514,2.58841
1394738606514,2.57856
1394738666514,2.57081
1394738726514,2.57850
1394738786514,2.56345
1394738846514,2.60238
1394738906514,2.62048
1394738966514,2.62264
1394739026514,2.57429
1394739086514,2.56741
1394739146514,2.56535
1394739206514,2.58611
1394739266514,2.58369
1394739326514,2.53505
1394739386514,2.55550
1394739446514,2.54272
1394739506514,2.53732
1394739566514,2.55814
1394739626514,2.53185
1394739686514,2.55427
1394739746514,2.54226
1394739806514,2.54348
1394739866514,2.51289
1394739926514,2.55346
1394739986514,2.52315
1394740046514,2.54394
1394740106514,2.52126
1394740166514,2.52085
1394740226514,2.52711
1394740286514,2.55597
1394740346514,2.56336
1394740406514,2.55488
1394740466514,2.50106
1394740526514,2.54565
1394740586514,2.51959
1394740646514,2.53921
1394740706514,2.54873
1394740766514,2.53430
1394740826526,2.45088
1394740886525,2.55479
1394740946525,2.55076
1394741006525,2.54775
1394741066526,2.56622
1394741126526,2.55465
1394741186526,2.60107
1394741246526,2.59526
1394741306526,2.57702
1394741366526,2.56572
1394741426526,2.56414
1394741486526,2.59617
1394741546526,2.60603
1394741606526,2.59886
1394741666526,2.58086
1394741726526,2.60151
1394741786526,2.58183
1394741846526,2.60163
1394741906526,2.61987
1394741966526,2.59990
1394742026526,2.60692
1394742086526,2.61320
1394742146526,2.57489
1394742206525,2.58919
1394742266525,2.56589
1394742326525,2.58255
1394742386525,2.56762
1394742446526,2.58696
1394742506526,2.63784
1394742566526,2.58541
1394742626526,2.56800
1394742686526,2.58509
1394742746526,2.56297
1394742806526,2.57565
1394742866526,2.56151
1394742926526,2.57204
1394742986526,2.56892
1394743046526,2.60236
1394743106526,2.57649
1394743166526,2.58949
1394743226526,2.55888
1394743286526,2.57726
1394743346526,2.60326
1394743406526,2.58507
1394743466526,2.55754
1394743526526,2.55977
1394743586525,2.57383
1394743646525,2.58895
1394743706525,2.53875
1394743766526,2.58454
1394743826526,2.59389
1394743886526,2.57007
1394743946526,2.57169
1394744006526,2.57971
1394744066526,2.61734
1394744126526,2.55189
1394744186526,2.53165
1394744246526,2.54596
1394744306526,2.57258
1394744366526,2.55173
1394744426537,2.54791
1394744486537,2.57175
1394744546537,2.56474
1394744606537,2.57027
1394744666537,2.58333
1394744726537,2.55838
1394744786537,2.57194
1394744846537,2.57253
1394744906537,2.56903
1394744966537,2.55162
1394745026537,2.56065
1394745086537,2.53214
1394745146537,2.58282
1394745206537,2.55563
1394745266537,2.52720
1394745326537,2.54759
1394745386537,2.54002
1394745446537,2.56047
1394745506537,2.55722
1394745566537,2.53306
1394745626537,2.52691
1394745686537,2.57011
1394745746537,2.56466
1394745806537,2.53948
1394745866537,2.55268
1394745926537,2.55620
1394745986537,2.54470
1394746046537,2.55754
1394746106537,2.56699
1394746166537,2.57103
1394746226537,2.52203
1394746286537,2.54178
1394746346537,2.53806
1394746406537,2.54994
1394746466537,2.55528
1394746526537,2.56459
1394746586537,2.54514
1394746646537,2.53290
1394746706537,2.54690
1394746766537,2.52338
1394746826537,2.54409
1394746886537,2.52148
1394746946537,2.52363
1394747006537,2.57382
1394747066537,2.52587
1394747126537,2.53247
1394747186537,2.53602
1394747246537,2.56365